sat.trackr.live / text

‹ back to catalog

IRNSS-1F

NORAD 41384 · 2016-015A

PAYLOAD ACTIVE UNKNOWN

§ Identity

Operator
Country
IND
Launch date
2016-03-10
Launch site
SRILR
Launch vehicle
Mass (kg)
RCS (m²)
0.00

Purposes: comms

External: N2YO · Heavens-Above · Gunter

§ Orbital elements

Epoch: 2026-09-19T19:11:38.543424Z

Period
1,436.00 min
Inclination
5.5813°
Eccentricity
0.0020242
Mean motion
1.00278849 rev/d
Perigee alt
35,699.3 km
Apogee alt
35,870.0 km
Semi-major
42,162.8 km
B*
0.0000e+0
RAAN
94.5948°
Arg perigee
175.6695°
Mean anomaly
48.9652°
Rev number
3,861

§ Raw data

IRNSS-1F1 41384U 16015A   26262.79975166  .00000155  00000+0  00000+0 0  99902 41384   5.5813  94.5948 0020242 175.6695  48.9652  1.00278849 38613

JSON: /api/v1/satellites/41384 · /tle

For live sub-satellite position, see the globe view (requires WebGL).

§ Visibility from observer

Set your observer location to see the next 7 days of passes ≥ 10°. The values pass through the URL so the page stays shareable.

No JS? Fill the form by hand. The geolocation button needs JavaScript.